Theta_e
295 296 296 296 296 297 297 297 298 298 298 299 300 301 302 302 301 302 302 301 300 301 302 302 304 305 307 310 309 307 305 304
295 295 295 295 296 296 296 297 297 297 297 297 297 298 299 299 301 301 300 300 301 301 301 301 301 302 305 306 306 304 303 303
295 295 296 296 295 295 295 296 296 297 297 297 297 297 297 297 299 299 299 298 300 299 299 300 302 304 303 303 303 303 300 301
295 295 295 295 295 295 295 295 295 295 295 296 296 296 296 297 297 297 297 296 296 295 296 299 302 302 302 303 302 301 300 300
294 294 294 295 295 295 295 295 294 294 294 294 294 295 295 295 295 295 295 294 293 293 295 294 298 299 299 299 298 298 298 298
293 293 293 293 293 293 293 293 291 291 291 291 292 292 292 291 290 290 289 291 292 291 289 290 291 295 294 293 294 294 294 291
293 293 293 293 293 292 291 290 289 289 288 288 286 286 286 287 287 287 288 288 288 288 287 287 289 292 294 293 290 289 289 289
291 292 292 291 291 291 291 288 286 285 286 285 285 285 286 285 285 286 287 286 286 286 286 285 286 291 293 292 288 287 287 287
291 291 291 290 290 289 287 286 286 286 284 282 284 283 283 284 284 284 285 283 282 282 282 281 282 289 291 291 286 285 285 285
290 289 289 289 289 286 286 285 285 285 285 284 282 282 282 281 281 281 279 278 277 279 276 277 284 287 289 289 285 284 283 284
288 288 288 289 287 284 285 283 284 284 284 282 281 281 283 282 280 278 275 278 278 280 283 283 284 286 288 287 283 282 281 282
286 286 287 286 284 283 282 282 283 281 280 278 278 277 278 277 275 273 273 276 275 278 280 281 282 283 288 286 283 282 281 281
284 284 285 283 280 280 280 282 279 278 277 276 278 275 277 269 271 269 270 272 277 279 279 279 281 284 287 286 284 283 281 280
281 281 282 278 277 278 280 278 278 276 276 279 280 274 272 269 270 270 268 270 275 278 278 277 279 283 287 286 286 284 281 282
277 278 278 279 276 276 276 276 273 273 275 279 279 274 270 272 272 275 275 278 278 278 279 279 279 281 283 284 284 283 282 283
276 277 277 277 277 274 274 279 278 274 274 276 275 272 272 275 275 275 276 280 279 279 279 278 278 281 285 284 282 281 282 282
275 274 276 274 274 274 269 272 277 277 278 279 279 274 275 279 279 284 284 284 284 283 281 279 282 286 286 285 285 285 285 282
274 275 274 272 272 272 265 266 272 276 279 279 278 275 274 276 277 280 283 286 286 286 285 284 285 286 286 286 286 286 284 280
271 271 268 268 269 267 261 261 265 270 275 279 277 273 273 277 277 277 277 275 275 281 283 286 286 286 286 284 281 276 276 275
269 267 265 265 268 261 258 261 264 269 273 278 277 278 277 277 276 275 274 273 272 273 275 274 280 280 279 279 274 272 269 265
Wind_Speed
7 8 7 6 6 5 5 4 4 4 4 5 6 6 6 6 7 8 7 7 7 9 10 9 10 10 11 12 11 11 10 9
5 4 3 3 5 6 6 7 7 5 5 6 6 6 5 6 7 8 7 7 9 9 10 11 10 9 10 12 12 11 12 11
6 6 7 7 7 6 6 7 7 6 7 7 7 5 6 7 7 6 8 7 9 8 9 9 10 10 11 13 11 13 12 13
8 8 7 7 7 7 7 8 7 6 7 8 8 7 7 7 7 7 7 8 7 7 8 10 11 11 12 13 12 13 13 12
6 6 6 6 6 7 7 6 7 8 7 8 8 7 7 7 7 7 7 7 7 7 8 8 10 11 11 11 11 11 11 11
6 6 4 3 3 4 3 3 4 6 6 6 6 7 8 8 8 7 7 7 7 7 7 7 7 8 9 8 10 9 9 6
7 9 10 8 7 6 6 6 6 7 8 8 6 6 6 7 7 7 7 7 6 7 7 7 6 11 13 10 7 6 6 7
7 6 7 8 8 12 12 8 7 6 7 7 7 9 9 8 7 7 7 6 7 6 6 6 6 9 11 13 5 5 5 6
6 7 8 7 7 7 8 9 10 10 6 4 6 6 7 8 8 7 5 4 5 5 5 3 5 8 9 9 4 4 5 5
4 5 7 8 8 8 11 8 8 9 10 9 7 9 8 7 7 5 3 3 3 3 3 3 4 6 7 5 3 2 3 3
6 5 7 8 6 7 10 9 11 10 11 9 8 8 11 9 8 4 3 3 3 3 3 4 4 5 7 5 2 3 2 1
5 6 8 7 6 8 8 11 8 7 8 7 6 6 7 6 3 4 4 3 2 1 2 3 4 3 4 7 2 1 2 1
5 6 7 6 3 7 9 9 7 8 8 7 8 5 5 4 4 3 3 2 3 3 2 2 3 2 8 8 5 5 3 2
5 7 8 4 3 7 9 6 10 10 10 9 10 6 4 4 5 3 1 2 2 2 2 2 2 1 10 8 7 7 3 2
4 6 9 6 5 7 8 6 6 9 9 10 10 7 4 2 2 4 3 3 2 2 2 1 2 0 3 3 4 7 4 4
5 6 10 8 10 6 6 7 7 7 7 8 6 5 4 3 3 3 3 3 2 1 0 1 2 1 6 5 4 3 5 4
7 7 11 7 10 8 4 6 7 8 7 9 8 3 3 3 3 6 6 5 3 5 4 1 3 6 10 11 11 11 10 4
9 10 12 11 11 8 4 4 8 10 10 7 7 4 3 2 1 3 5 8 5 6 8 8 7 9 8 9 9 12 7 3
9 11 8 9 13 5 4 5 6 10 14 9 6 4 3 3 2 1 2 3 3 12 14 13 8 8 13 14 10 6 7 4
16 14 8 9 12 4 3 5 7 8 9 9 6 5 5 4 4 3 3 3 3 3 9 11 16 16 14 11 5 6 5 3
Wind_Direction
21 16 9 5 358 4 4 341 317 290 266 250 237 232 240 237 239 236 236 217 209 214 218 216 215 215 221 236 238 229 226 229
28 360 353 341 0 349 354 337 325 337 303 282 279 265 256 250 254 244 241 221 222 221 220 223 221 217 224 237 234 229 231 223
3 2 6 359 359 351 344 340 335 323 298 304 297 298 274 262 265 257 246 234 232 223 222 221 222 226 226 238 233 233 232 233
11 11 5 6 9 10 10 357 346 327 337 329 319 314 291 280 275 267 261 251 244 229 228 234 239 238 231 236 234 235 234 231
13 15 9 7 10 3 358 2 352 347 348 341 331 316 297 289 279 270 259 257 251 237 234 228 234 236 235 232 233 232 231 235
356 349 348 349 334 337 311 311 332 327 321 307 303 307 308 304 295 284 275 266 259 254 244 235 226 231 221 220 227 234 240 226
352 349 347 343 338 335 340 339 344 336 325 317 315 312 309 304 296 285 276 271 263 255 248 242 234 233 228 223 224 222 226 238
345 334 330 334 339 337 332 332 325 307 308 316 326 322 318 313 308 302 294 289 280 278 267 255 243 236 226 225 219 226 230 234
338 329 326 328 329 322 326 326 325 325 301 271 294 292 303 312 305 300 291 284 284 278 272 258 263 251 239 235 207 219 219 216
318 311 317 319 319 328 322 322 320 321 320 325 325 321 310 293 288 284 278 285 269 268 272 241 265 251 242 221 187 190 218 210
323 320 309 307 329 322 311 315 312 313 314 312 313 309 308 305 307 284 271 256 260 260 298 266 258 264 246 200 147 171 171 170
305 292 289 302 316 298 298 290 283 291 292 290 288 290 280 292 278 297 291 290 299 266 341 302 280 263 212 154 120 132 123 120
283 278 278 282 267 275 278 283 293 300 298 296 296 295 297 285 288 292 287 285 291 292 312 319 309 248 148 138 136 157 134 146
267 293 298 272 222 278 284 307 312 312 305 304 302 294 290 291 288 291 308 270 267 263 271 293 315 281 134 118 114 118 108 124
290 292 295 296 256 241 283 292 296 289 291 295 294 293 291 285 272 284 288 257 204 221 244 285 297 135 94 82 108 96 89 107
247 265 272 286 290 281 283 289 292 285 284 282 276 274 281 257 234 229 255 256 250 203 195 226 265 12 110 95 86 77 92 84
287 278 286 276 284 288 278 287 282 287 288 286 283 259 258 268 290 260 243 241 204 160 155 232 191 138 125 121 110 111 108 75
275 285 295 290 287 294 283 278 276 276 279 263 253 237 228 230 323 105 73 86 128 164 154 157 148 131 134 136 124 129 95 62
288 286 257 270 274 265 266 258 262 269 271 263 229 199 183 158 133 79 109 93 52 53 73 82 126 132 119 113 97 68 51 69
290 284 254 261 276 260 279 269 270 270 269 255 209 188 172 155 131 103 100 94 86 58 58 35 67 69 65 70 85 100 82 56